Zurück zum Katalog

FENGYUN 1C DEB

AktivSSO
NORAD 30381·DEBRIS·🇨🇳 China

Gestartet May 10, 1999 von Taiyuan Satellite Launch Center

Loading…

Nächste Überflüge (nächste 24 Stunden)

TLE

AktuellSource: Space-Track

Epoche: Sep 12, 2026, 00:50 UTC

1 30381U 99025ACU 26255.03507021  .00001121  00000-0  60599-3 0  9995
2 30381  98.7920 290.6284 0054243  19.6068 340.7174 14.13886002960274

Verfolge FENGYUN 1C DEB in Echtzeit mit AllMySat

Download on the App Store